Wind_Speed
19 19 20 20 20 19 19 19 19 19 19 18 18 18 18 17 16 16 15 15 16 16 16 16 16 15 15 15 15 16 17 17 18 19 18 19 19 19 19 19 18 18 19 19
21 20 21 21 21 20 19 19 19 19 18 19 19 17 17 17 17 17 17 17 17 17 17 18 18 18 17 17 17 17 18 18 19 19 19 19 19 19 19 18 18 19 19 20
21 21 21 22 21 20 19 19 19 19 19 18 18 18 17 17 17 17 17 17 18 18 18 19 20 20 19 19 18 18 18 18 19 19 19 19 18 18 18 18 19 20 20 21
21 21 21 19 19 19 19 19 18 18 18 18 19 18 18 17 17 17 17 17 17 17 17 18 19 19 18 18 18 19 19 19 20 19 18 17 17 17 18 19 19 20 20 20
21 21 21 19 18 17 18 19 19 19 19 18 18 18 18 17 17 16 16 16 16 17 17 17 16 16 16 17 19 19 20 20 19 19 19 18 17 18 18 19 20 20 20 20
21 21 20 18 18 18 18 18 18 19 18 18 18 18 17 18 18 18 17 17 17 17 17 17 17 17 17 18 20 20 19 19 19 19 19 19 19 20 19 20 20 20 20 20
21 21 20 20 19 19 19 18 18 19 19 19 19 18 18 18 18 18 18 18 18 18 18 17 18 18 17 18 18 18 18 19 19 19 19 19 20 20 20 20 19 20 19 20
22 22 22 21 21 21 19 19 19 19 20 20 19 18 18 18 17 17 17 17 17 18 18 18 18 18 18 17 17 17 18 18 18 19 19 19 19 19 20 19 20 20 20 21
22 23 22 22 22 22 21 20 20 20 20 20 19 18 18 17 18 18 17 17 18 17 17 18 18 17 18 18 18 18 18 17 17 18 18 19 19 20 20 20 20 21 21 21
24 24 24 24 23 23 22 22 21 20 20 20 20 19 19 18 18 18 18 18 18 18 17 18 18 19 19 19 18 17 17 18 18 19 20 20 20 20 20 20 20 21 22 21
25 25 25 25 24 24 24 23 22 21 20 20 19 19 18 18 18 18 18 18 19 19 19 19 19 19 19 19 19 19 19 20 21 21 21 20 21 21 20 21 21 22 22 22
25 25 25 25 24 24 24 23 22 21 21 21 20 19 19 18 18 18 19 20 20 20 19 19 19 20 20 20 20 19 20 20 21 22 21 21 21 21 22 22 22 22 22 22
25 25 25 25 25 25 24 23 22 22 22 23 22 21 20 20 20 20 20 20 20 20 19 19 20 20 20 21 20 20 21 21 21 21 21 22 22 22 23 23 23 22 22 21
27 26 26 26 25 25 25 24 23 23 23 23 23 22 22 22 21 21 21 20 20 20 20 20 20 20 21 21 21 21 22 22 22 21 22 22 22 23 23 23 22 21 21 21
28 28 27 27 26 26 25 25 25 24 24 24 24 23 23 22 22 21 21 21 21 20 20 21 21 21 22 22 21 21 21 22 22 22 22 23 23 23 22 22 21 20 20 20
28 28 28 27 26 26 26 26 25 25 24 24 24 24 24 23 22 22 22 22 21 21 21 21 22 22 22 22 21 21 21 22 22 22 22 22 22 22 21 20 20 19 20 20
28 28 27 27 27 26 26 26 26 25 25 25 24 24 23 23 22 22 22 21 21 21 21 21 22 22 22 22 22 21 21 21 22 22 22 22 21 21 20 20 20 20 21 21
27 27 27 27 27 26 26 26 26 25 24 24 24 24 23 23 22 22 22 22 21 21 21 21 21 22 21 22 22 21 21 21 21 21 21 22 21 21 21 21 21 21 21 21
26 26 26 26 26 26 25 25 24 24 24 25 25 24 24 23 23 23 22 22 21 21 22 21 21 21 21 21 21 21 21 21 21 21 22 21 21 21 21 21 21 21 21 21
26 25 25 26 26 25 24 24 23 23 24 25 25 24 23 23 23 23 23 22 22 22 22 22 22 22 21 21 21 21 21 22 22 21 21 21 20 20 21 21 21 20 21 21
24 25 26 25 25 25 25 24 24 24 24 24 24 24 23 23 23 23 23 23 23 23 23 23 22 22 22 22 22 22 22 22 22 22 22 21 21 21 21 21 21 21 21 21
24 25 24 24 24 24 24 24 24 24 24 25 24 24 24 24 23 23 23 23 23 23 23 22 22 22 21 22 22 22 22 21 21 22 21 21 21 21 21 21 21 22 22 22
23 24 24 24 24 24 24 24 24 24 24 24 24 24 24 24 24 23 23 23 23 22 21 21 21 21 21 22 22 22 22 21 21 21 21 21 21 21 21 21 21 22 22 22
21 22 23 23 23 24 24 24 24 24 24 24 24 23 24 23 23 23 23 22 22 22 21 21 21 21 21 21 21 21 21 21 21 21 21 21 20 20 20 20 21 22 22 21
20 20 21 22 22 23 23 23 23 24 24 24 24 23 23 23 22 21 21 22 22 22 22 21 21 21 21 21 21 21 21 21 20 20 20 20 20 20 20 20 21 21 21 21
18 19 19 20 21 22 23 23 24 24 25 24 24 24 23 23 22 22 22 22 22 22 22 22 21 21 21 21 21 21 21 20 20 19 18 18 19 20 20 21 21 21 21 21
18 18 19 20 21 22 23 23 24 23 23 24 24 24 24 23 23 22 22 22 22 22 22 21 21 21 21 22 21 21 21 20 19 19 18 19 19 20 21 21 20 20 20 20
Wind_Direction
256 255 256 259 262 265 269 274 276 277 279 281 283 283 286 287 288 288 291 293 292 291 292 292 292 293 295 297 299 302 305 309 310 311 310 310 310 311 311 311 310 311 312 312
257 260 259 260 263 265 267 270 273 275 277 278 278 281 284 284 283 283 283 287 289 289 288 289 289 287 286 290 294 297 301 305 307 308 309 309 308 308 309 310 313 314 313 312
261 264 265 262 264 264 267 269 271 273 275 275 277 279 281 282 282 282 282 284 287 288 287 289 288 286 283 284 289 294 298 301 304 306 308 309 308 309 309 311 313 314 313 313
261 263 262 264 264 262 264 268 271 275 277 276 277 277 277 280 281 282 282 284 287 289 291 292 290 288 283 285 289 292 295 298 302 303 307 308 308 310 310 309 310 311 313 312
260 261 261 261 263 262 263 265 270 275 276 278 280 279 277 278 280 282 283 283 286 288 290 293 292 290 287 286 290 291 293 295 301 304 307 306 307 309 310 310 310 311 310 311
258 259 259 263 264 265 266 268 272 275 277 281 285 283 280 277 278 278 279 280 282 284 285 287 289 290 287 287 289 291 293 296 300 303 306 307 310 312 311 312 312 311 312 313
255 257 260 264 266 267 268 272 272 276 280 284 287 285 283 283 283 281 280 279 282 283 284 286 287 288 288 287 286 290 293 295 298 302 306 308 309 311 311 311 312 313 315 316
255 258 260 265 267 268 271 272 272 274 277 282 284 284 286 287 285 284 285 285 285 286 286 285 286 287 286 288 291 292 294 296 297 299 303 305 305 308 311 310 310 311 313 315
256 258 261 263 265 268 269 270 272 274 277 280 280 281 282 282 283 284 284 285 286 287 285 286 285 286 286 288 290 291 293 296 298 301 302 304 305 307 308 308 308 309 311 313
257 257 260 263 266 268 269 271 272 273 275 277 277 278 279 281 282 284 284 284 285 285 286 284 283 285 287 289 292 294 296 298 299 301 303 305 307 308 307 307 307 309 312 312
255 256 259 262 264 266 268 269 269 270 271 275 276 276 277 279 281 282 282 284 284 284 285 284 283 282 284 288 291 292 294 297 300 302 303 306 307 306 307 308 308 309 310 311
256 257 259 262 263 265 268 269 269 269 270 273 278 274 274 277 280 282 283 285 286 286 287 286 284 283 282 285 287 289 293 296 299 301 302 302 303 303 305 307 307 309 309 311
255 258 260 261 261 264 265 267 268 269 269 272 274 273 273 276 278 280 283 284 285 285 286 287 286 285 285 287 286 288 291 295 296 297 298 299 300 301 304 305 306 308 309 311
255 258 260 261 260 260 261 263 266 270 271 272 272 273 275 277 277 279 281 282 283 283 284 285 286 287 288 288 287 288 290 291 292 294 296 298 299 299 302 305 307 307 308 309
257 259 260 259 257 257 260 262 264 269 271 271 272 274 275 274 274 276 279 279 280 281 283 285 286 287 289 289 288 288 291 293 293 294 297 299 299 299 301 303 306 308 307 307
258 259 258 257 256 256 259 262 266 269 271 272 272 273 273 274 275 276 278 281 280 282 284 285 287 287 289 291 290 291 292 293 293 294 297 299 300 300 300 301 302 304 306 306
258 259 259 258 259 259 261 263 265 267 270 272 271 270 271 272 275 277 278 280 281 282 286 288 289 289 289 291 291 292 293 292 292 293 295 296 297 297 297 297 299 300 303 304
258 259 260 259 258 259 259 261 262 264 267 269 269 269 269 271 273 275 276 278 279 282 286 288 289 290 290 291 290 290 291 292 293 294 294 295 295 296 296 296 297 299 302 304
256 258 259 257 257 256 257 260 261 263 264 266 268 268 269 270 273 274 275 276 277 280 283 285 287 289 290 291 291 292 294 294 295 295 295 295 294 295 296 297 296 297 299 301
255 256 258 258 259 259 257 259 261 264 266 266 266 267 269 271 272 273 274 275 277 279 281 283 285 288 290 291 291 292 294 295 295 295 295 295 295 296 297 297 296 297 299 300
253 255 256 258 260 259 259 260 263 263 264 265 266 267 268 269 270 272 273 275 276 277 278 281 283 285 287 288 288 290 292 292 292 293 294 295 296 296 297 297 296 297 299 300
255 255 255 256 257 260 262 263 264 264 265 266 267 267 267 269 271 272 273 275 276 276 276 278 281 283 285 286 287 290 292 291 291 294 295 296 296 297 297 297 298 298 299 300
259 257 256 255 256 258 261 263 264 265 266 266 266 267 268 269 270 271 273 274 274 274 276 277 279 282 285 286 288 291 293 293 293 294 295 296 296 296 297 298 298 299 300 300
263 261 259 257 257 258 258 259 261 263 265 264 264 266 267 267 268 269 271 273 272 273 275 277 277 280 283 285 288 291 293 294 295 296 294 294 295 297 297 298 300 301 301 302
264 264 262 258 257 258 258 258 258 260 262 264 265 264 265 266 267 268 269 270 272 272 273 275 277 279 282 285 289 291 292 293 294 294 293 293 294 296 297 298 300 303 302 303
270 266 263 263 262 260 259 259 260 261 262 262 263 263 265 265 265 265 265 268 270 270 272 274 277 280 283 286 289 291 291 291 292 292 292 293 295 296 298 300 302 303 303 303
273 269 267 268 267 263 262 262 263 264 263 262 262 263 263 263 264 265 266 268 270 269 271 273 276 279 283 285 287 288 289 289 288 288 289 292 295 297 299 301 301 301 302 304
Height
5797 5798 5799 5799 5799 5800 5800 5800 5800 5801 5800 5800 5799 5798 5797 5796 5795 5794 5793 5792 5791 5790 5789 5787 5786 5785 5783 5782 5781 5779 5777 5775 5773 5771 5768 5766 5763 5760 5758 5755 5753 5751 5748 5746
5792 5793 5793 5794 5794 5795 5795 5795 5795 5795 5795 5794 5794 5793 5792 5791 5791 5790 5789 5788 5787 5785 5784 5783 5782 5780 5779 5778 5777 5775 5773 5771 5769 5766 5764 5761 5759 5756 5753 5751 5749 5746 5744 5741
5787 5787 5788 5789 5790 5790 5790 5790 5790 5790 5791 5789 5789 5788 5787 5786 5786 5785 5784 5783 5782 5781 5780 5778 5777 5775 5774 5773 5772 5770 5768 5766 5764 5762 5759 5757 5754 5752 5749 5747 5744 5742 5739 5736
5781 5782 5782 5786 5785 5785 5785 5785 5785 5785 5784 5784 5784 5783 5782 5781 5780 5780 5779 5778 5777 5776 5775 5773 5772 5770 5769 5768 5767 5765 5764 5761 5759 5757 5755 5752 5750 5747 5745 5742 5740 5737 5734 5732
5775 5776 5777 5779 5779 5780 5780 5780 5781 5780 5780 5779 5778 5778 5777 5776 5775 5774 5774 5773 5772 5771 5770 5769 5767 5766 5764 5763 5762 5761 5759 5757 5755 5753 5750 5748 5746 5743 5740 5738 5735 5732 5730 5727
5770 5771 5772 5775 5775 5774 5776 5776 5776 5775 5775 5774 5773 5773 5772 5771 5769 5769 5768 5768 5767 5766 5765 5764 5763 5761 5760 5759 5757 5756 5754 5752 5750 5748 5746 5744 5741 5738 5736 5733 5730 5727 5725 5722
5765 5766 5767 5769 5769 5770 5771 5772 5770 5770 5769 5769 5768 5767 5767 5765 5764 5763 5763 5762 5762 5761 5760 5759 5758 5757 5755 5754 5752 5751 5749 5747 5746 5744 5741 5739 5736 5734 5731 5728 5725 5723 5720 5717
5760 5761 5764 5763 5764 5765 5765 5765 5764 5764 5764 5764 5763 5762 5761 5760 5759 5758 5757 5757 5756 5755 5755 5754 5753 5751 5750 5749 5747 5745 5744 5742 5741 5739 5737 5734 5732 5729 5726 5724 5721 5718 5716 5713
5755 5757 5757 5757 5758 5759 5759 5759 5759 5759 5759 5758 5758 5757 5756 5756 5755 5754 5753 5752 5751 5750 5749 5748 5747 5746 5745 5744 5743 5741 5740 5738 5736 5734 5732 5730 5727 5725 5722 5719 5716 5714 5711 5708
5748 5749 5750 5751 5752 5752 5753 5753 5753 5753 5753 5753 5752 5752 5751 5751 5750 5749 5748 5747 5746 5745 5744 5743 5742 5741 5740 5739 5738 5737 5735 5734 5732 5730 5727 5725 5722 5719 5717 5714 5712 5709 5706 5703
5741 5743 5744 5744 5745 5745 5746 5746 5747 5747 5747 5747 5747 5746 5746 5745 5744 5743 5743 5742 5741 5740 5739 5738 5737 5736 5735 5734 5733 5732 5730 5729 5727 5725 5722 5720 5717 5715 5712 5709 5706 5704 5701 5698
5734 5736 5737 5738 5738 5738 5739 5740 5740 5740 5741 5741 5741 5740 5740 5739 5739 5738 5737 5736 5735 5734 5733 5732 5731 5730 5730 5729 5728 5726 5725 5723 5721 5719 5717 5715 5712 5710 5707 5704 5701 5698 5695 5693
5727 5728 5730 5731 5731 5732 5732 5733 5733 5733 5734 5734 5734 5734 5734 5733 5733 5732 5731 5730 5729 5728 5727 5726 5726 5725 5724 5723 5722 5721 5719 5717 5716 5713 5711 5709 5706 5704 5702 5699 5696 5693 5690 5688
5720 5721 5722 5723 5724 5724 5725 5726 5726 5727 5727 5727 5727 5727 5727 5727 5726 5726 5725 5724 5723 5722 5721 5721 5720 5719 5718 5717 5716 5714 5713 5711 5710 5708 5705 5703 5701 5698 5696 5694 5691 5688 5686 5683
5712 5713 5714 5715 5716 5717 5718 5718 5719 5720 5720 5720 5720 5720 5720 5720 5720 5719 5719 5718 5717 5716 5715 5714 5713 5712 5711 5710 5709 5708 5706 5705 5703 5701 5699 5697 5695 5692 5690 5688 5686 5683 5681 5678
5704 5705 5706 5707 5708 5709 5710 5711 5712 5712 5712 5712 5713 5713 5713 5713 5713 5712 5712 5711 5710 5710 5709 5708 5707 5706 5705 5704 5702 5701 5700 5698 5696 5695 5693 5691 5688 5686 5684 5682 5680 5678 5676 5673
5696 5697 5698 5699 5700 5701 5702 5703 5704 5704 5705 5705 5705 5705 5706 5706 5706 5706 5705 5705 5704 5703 5702 5702 5701 5700 5698 5697 5696 5695 5693 5692 5690 5688 5686 5684 5682 5680 5678 5676 5674 5672 5670 5668
5688 5689 5689 5690 5691 5692 5693 5694 5695 5696 5697 5697 5697 5698 5698 5699 5699 5699 5699 5698 5698 5697 5696 5695 5694 5693 5692 5691 5690 5688 5687 5685 5684 5682 5680 5678 5676 5674 5672 5670 5668 5666 5664 5662
5680 5681 5681 5682 5682 5683 5684 5686 5687 5688 5689 5689 5690 5691 5691 5692 5692 5692 5692 5691 5691 5690 5690 5689 5688 5687 5685 5684 5683 5682 5680 5679 5677 5675 5673 5672 5670 5668 5666 5664 5662 5660 5658 5656
5672 5673 5673 5674 5675 5676 5677 5678 5679 5680 5681 5682 5682 5683 5684 5684 5684 5684 5684 5684 5684 5683 5683 5682 5681 5680 5679 5678 5677 5676 5674 5672 5670 5669 5667 5665 5663 5662 5660 5658 5656 5654 5652 5650
5665 5666 5666 5667 5667 5669 5670 5671 5672 5673 5673 5674 5675 5675 5676 5676 5677 5677 5677 5677 5676 5676 5675 5675 5674 5674 5673 5672 5670 5669 5667 5666 5664 5662 5660 5659 5657 5656 5654 5652 5650 5648 5646 5644
5657 5658 5659 5660 5660 5661 5662 5663 5664 5665 5666 5666 5667 5668 5668 5669 5669 5669 5669 5669 5669 5668 5668 5668 5667 5666 5665 5664 5663 5662 5661 5659 5658 5656 5654 5653 5651 5649 5648 5646 5644 5642 5640 5638
5650 5650 5651 5652 5653 5654 5655 5655 5656 5657 5658 5659 5659 5660 5660 5661 5661 5661 5662 5661 5661 5661 5660 5660 5660 5659 5658 5657 5656 5655 5654 5652 5651 5649 5648 5646 5645 5643 5641 5640 5638 5636 5633 5631
5643 5643 5644 5644 5645 5646 5647 5648 5648 5649 5650 5651 5651 5652 5652 5653 5653 5653 5653 5653 5653 5653 5653 5653 5652 5652 5651 5650 5649 5648 5647 5646 5644 5643 5641 5640 5638 5637 5635 5634 5632 5630 5627 5625
5636 5636 5636 5636 5637 5638 5639 5640 5641 5642 5642 5643 5644 5644 5645 5645 5645 5645 5645 5645 5645 5645 5645 5645 5645 5644 5644 5643 5643 5642 5640 5639 5638 5636 5635 5634 5632 5631 5629 5627 5626 5624 5621 5619
5629 5629 5629 5629 5630 5630 5631 5632 5633 5634 5634 5635 5636 5637 5637 5638 5638 5638 5638 5638 5638 5638 5638 5638 5637 5637 5637 5636 5636 5635 5634 5633 5631 5630 5629 5628 5626 5625 5623 5621 5619 5617 5615 5613
5623 5623 5623 5623 5623 5623 5623 5624 5624 5625 5626 5627 5628 5628 5629 5630 5630 5630 5630 5630 5630 5630 5630 5630 5630 5630 5630 5629 5629 5628 5627 5626 5625 5624 5623 5621 5620 5619 5617 5615 5613 5611 5609 5607